[[{"header":{"parameterUnit":"m.s-1","parameterCategory":1,"la1":30.2991,"la2":30.254,"lo1":-89.0895,"lo2":-89.0444,"dy":0.0017,"dx":0.0017,"nx":28,"ny":28,"refTime":"2024-12-16T03:00:00:Z","depth":0,"parameterNumber":2,"parameterNumberName":"U-component_of_WINDS"},"data":[0,0,0,0,0,0,0,0,0,0,0,0,0,0,0,0,0,0,0,0,0,0,0,0,0,0,0,0,0,0,0,0,0,0,0,0,0,0,0,0,0,0,0,0,0,0,0,0,0,0,0,0,0,0,0,0,0,0,-4.2816,-4.2817,0,-4.2846,-4.2847,-4.2847,-4.2765,-4.2762,-4.276,-4.2757,-4.279,-4.2793,-4.2797,0,0,0,0,0,0,0,0,0,0,0,0,0,-4.2691,-4.2694,-4.2816,-4.2817,-4.2817,-4.2846,-4.2847,-4.2847,-4.2765,-4.2762,-4.2759,-4.2756,-4.2789,-4.2793,-4.2797,0,0,0,0,0,0,0,0,0,0,0,0,0,-4.2736,-4.2695,-4.2816,-4.278,-4.2777,-4.2846,-4.2847,-4.2847,-4.2766,-4.2762,-4.2758,-4.2755,-4.2788,-4.2793,-4.2798,-4.2904,0,0,-4.2812,-4.2815,0,0,0,0,0,0,0,0,-4.2733,-4.274,-4.2785,-4.2782,-4.2779,-4.2798,-4.2815,-4.2866,-4.2767,-4.277,-4.2757,-4.2753,-4.2796,-4.28,-4.2814,-4.2906,-4.2907,-4.2813,-4.2816,-4.2818,-4.2819,0,0,0,0,0,0,0,-4.273,-4.2739,-4.2828,-4.2785,-4.2782,-4.2763,-4.2765,-4.2824,-4.2804,-4.277,-4.2764,-4.2768,-4.2794,-4.281,-4.2814,-4.2908,-4.2813,-4.2817,-4.282,-4.2822,-4.3091,-4.3095,0,0,0,0,0,0,-4.2732,-4.2737,-4.2827,-4.2829,-4.2746,-4.2768,-4.2771,-4.2796,-4.2803,-4.2801,-4.2772,-4.2764,-4.2803,-4.2809,-4.2815,-4.2942,-4.2818,-4.2822,-4.2825,-4.3087,-4.3092,-4.3097,0,0,0,0,0,0,-4.2729,-4.274,-4.2826,-4.2781,-4.2791,-4.2774,-4.2803,-4.2798,-4.2814,-4.2805,-4.2801,-4.2791,-4.28,-4.2808,-4.2883,-4.2942,-4.2825,-4.2829,-4.3082,-4.3089,-4.3094,-4.3196,0,0,0,0,0,0,-4.2726,-4.274,-4.2779,-4.2783,-4.2793,-4.2893,-4.2807,-4.2802,-4.2822,-4.2813,-4.2822,-4.282,-4.2798,-4.2876,-4.2888,-4.2946,-4.2833,-4.3077,-4.3085,-4.3092,-4.3187,-4.3205,-4.322,0,0,0,0,0,-4.2722,-4.2807,-4.2782,-4.2793,-4.2842,-4.2896,-4.2902,-4.2874,-4.2827,-4.2868,-4.2862,-4.282,-4.2934,-4.2885,-4.2897,-4.2958,-4.3073,-4.3083,-4.3092,-4.3179,-4.3201,-4.3219,0,0,0,0,0,0,-4.281,-4.2806,-4.2779,-4.2867,-4.2883,-4.2882,-4.2931,-4.2898,-4.2927,-4.2918,-4.2883,-4.2886,-4.2968,-4.297,-4.2916,-4.3063,-4.2995,-4.3008,-4.3058,-4.3078,-4.3094,-4.3092,-4.2837,0,0,0,0,0,-4.284,-4.2884,-4.2878,-4.2957,-4.2966,-4.2948,-4.297,-4.2948,-4.2963,-4.2969,-4.2969,-4.2986,-4.3025,-4.3052,-4.3088,-4.3187,-4.3189,-4.3236,-4.3252,-4.3265,-4.3277,-4.3331,-4.3352,-4.3128,-4.3128,-4.3128,0,0,-4.2902,-4.2905,-4.2935,-4.2975,-4.2984,-4.3031,-4.2954,-4.3006,-4.3041,-4.2977,-4.3047,-4.3049,-4.3065,-4.3153,-4.3192,-4.3158,-4.3339,-4.3278,-4.3288,-4.3292,-4.3343,-4.3364,-4.3383,-4.3134,-4.3133,-4.3132,0,0,-4.3039,-4.3046,-4.3112,-4.3124,-4.3139,-4.3127,-4.3144,-4.3149,-4.3147,-4.3217,-4.3171,-4.3213,-4.3281,-4.3296,-4.3312,-4.3458,-4.342,-4.3471,-4.3556,-4.361,-4.3627,-4.3643,-4.3696,-4.3715,-4.3482,-4.3482,-4.3482,0,-4.3114,-4.3182,-4.3151,-4.3207,-4.3227,-4.3172,-4.324,-4.3253,-4.328,-4.3295,-4.3257,-4.3343,-4.335,-4.3442,-4.3478,-4.3493,-4.3511,-4.3469,-4.3627,-4.3643,-4.3657,-4.3707,-4.3727,-4.3488,-4.3487,-4.3487,-4.3486,0,-4.3274,-4.3322,-4.3374,-4.3402,-4.3427,-4.3489,-4.3469,-4.3499,-4.3476,-4.3469,-4.3542,-4.355,-4.3587,-4.3607,-4.3584,-4.3697,-4.3675,-4.3633,-4.3564,-4.3685,-4.3731,-4.375,-4.3497,-4.3495,-4.3493,-4.3491,0,0,-4.3465,-4.3476,-4.3496,-4.3509,-4.3523,-4.356,-4.3621,-4.3657,-4.3684,-4.3706,-4.3757,-4.3817,-4.3779,-4.3798,-4.3777,-4.3824,-4.3941,-4.3776,-4.3776,-4.3807,-4.4066,-4.4098,-4.412,-4.3916,-4.392,-4.3923,-4.4065,0,-4.36,-4.3703,-4.3679,-4.3781,-4.3826,-4.3776,-4.3829,-4.3845,-4.3841,-4.3879,-4.3875,-4.3919,-4.3864,-4.3875,-4.392,-4.3917,-4.3992,-4.3906,-4.3964,-4.3967,-4.3961,-4.4144,-4.4177,-4.4311,-4.4083,-4.4086,-4.4088,0,-4.3771,-4.3799,-4.3906,-4.3915,-4.3933,-4.3981,-4.4014,-4.4051,-4.4069,-4.4063,-4.4085,-4.4055,-4.4117,-4.4049,-4.4135,-4.4077,-4.41,-4.4102,-4.4107,-4.4111,-4.4034,-4.4154,-4.4353,-4.4373,-4.4116,-4.4114,-4.4112,0,-4.39,-4.3965,-4.4038,-4.405,-4.4063,-4.4098,-4.4105,-4.4119,-4.4143,-4.4172,-4.4188,-4.4224,-4.4244,-4.4274,-4.4256,-4.4207,-4.4345,-4.4275,-4.4343,-4.4343,-4.4373,-4.4371,-4.4579,-4.4388,-4.4388,-4.4388,-4.4387,0,-4.4053,-4.4121,-4.4096,-4.4141,-4.4216,-4.4189,-4.4264,-4.4266,-4.4279,-4.4324,-4.4284,-4.4328,-4.4301,-4.4343,-4.433,-4.4404,-4.4413,-4.441,-4.4406,-4.4414,-4.4414,-4.4428,-4.4418,-4.4393,-4.4392,-4.4391,-4.439,0,-4.4209,-4.4195,-4.4272,-4.4278,-4.4282,-4.4337,-4.4343,-4.4385,-4.4379,-4.4437,-4.4449,-4.444,-4.4488,-4.4473,-4.4524,-4.4515,-4.4609,-4.4593,-4.4603,-4.4599,-4.4667,-4.4661,-4.4891,-4.492,-4.4711,-4.4713,-4.4715,0,-4.4307,-4.4358,-4.4371,-4.4398,-4.4408,-4.4453,-4.4478,-4.4454,-4.4482,-4.4508,-4.4548,-4.4592,-4.4626,-4.4705,-4.4704,-4.4744,-4.4728,-4.4806,-4.4733,-4.4741,-4.4729,-4.4726,-4.4732,-4.482,-4.4822,-4.4824,-4.4826,0,-4.4483,-4.4474,-4.4511,-4.4548,-4.4579,-4.4606,-4.463,-4.4655,-4.4633,-4.4667,-4.4715,-4.4742,-4.4795,-4.484,-4.4877,-4.4885,-4.4853,-4.4849,-4.4867,-4.4875,-4.4879,-4.4878,-4.4642,-4.4843,-4.4841,-4.484,-4.4839,-4.4839,-4.4613,-4.4657,-4.4673,-4.4717,-4.4732,-4.4756,-4.4797,-4.4797,-4.4836,-4.4878,-4.4862,-4.4918,-4.4937,-4.4983,-4.4997,-4.5042,-4.5012,-4.5038,-4.5044,-4.5051,-4.506,-4.4873,-4.5048,-4.5048,-4.5047,-4.5047,-4.5047,0,-4.4787,-4.4795,-4.4836,-4.4871,-4.4906,-4.4873,-4.4898,-4.493,-4.4979,-4.5,-4.5035,-4.5092,-4.5136,-4.514,-4.5182,-4.5217,-4.5203,-4.5229,-4.5226,-4.5228,-4.5083,-4.5064,-4.5239,-4.5239,-4.5239,-4.5239,-4.5239,-4.5239,-4.4881,-4.4954,-4.4948,-4.5029,-4.5038,-4.5092,-4.511,-4.5132,-4.5148,-4.5214,-4.5251,-4.5253,-4.5267,-4.531,-4.535,-4.535,-4.5367,-4.5399,-4.5393,-4.5258,-4.5238,-4.522,-4.5201,-4.5403,-4.5403,-4.5534,-4.5536,-4.5537]},{"header":{"parameterUnit":"m.s-1","parameterCategory":1,"la1":30.2991,"la2":30.254,"lo1":-89.0895,"lo2":-89.0444,"dy":0.0017,"dx":0.0017,"nx":28,"ny":28,"refTime":"2024-12-16T03:00:00:Z","depth":0,"parameterNumber":3,"parameterNumberName":"V-component_of_WINDS"},"data":[0,0,0,0,0,0,0,0,0,0,0,0,0,0,0,0,0,0,0,0,0,0,0,0,0,0,0,0,0,0,0,0,0,0,0,0,0,0,0,0,0,0,0,0,0,0,0,0,0,0,0,0,0,0,0,0,0,0,-0.6702,-0.6702,0,-0.6744,-0.6744,-0.6745,-0.6735,-0.6734,-0.6733,-0.6733,-0.6775,-0.6776,-0.6778,0,0,0,0,0,0,0,0,0,0,0,0,0,-0.6612,-0.6614,-0.6702,-0.6703,-0.6703,-0.6744,-0.6744,-0.6745,-0.6735,-0.6734,-0.6733,-0.6732,-0.6774,-0.6776,-0.6778,0,0,0,0,0,0,0,0,0,0,0,0,0,-0.6652,-0.6614,-0.6702,-0.6703,-0.6704,-0.6744,-0.6744,-0.6745,-0.6735,-0.6734,-0.6733,-0.6732,-0.6773,-0.6776,-0.6779,-0.682,0,0,-0.6787,-0.6789,0,0,0,0,0,0,0,0,-0.665,-0.6655,-0.6702,-0.6703,-0.6704,-0.6733,-0.6728,-0.677,-0.6736,-0.6723,-0.6733,-0.6731,-0.6762,-0.6765,-0.6776,-0.6822,-0.6824,-0.6788,-0.6789,-0.679,-0.6791,0,0,0,0,0,0,0,-0.6647,-0.6654,-0.6718,-0.6703,-0.6704,-0.6701,-0.6705,-0.6736,-0.6749,-0.6724,-0.6724,-0.6729,-0.6762,-0.6773,-0.6777,-0.6824,-0.6787,-0.679,-0.6792,-0.6793,-0.6905,-0.6906,0,0,0,0,0,0,-0.6644,-0.6651,-0.6717,-0.672,-0.6673,-0.6704,-0.6708,-0.6725,-0.6748,-0.6751,-0.673,-0.6728,-0.6769,-0.6773,-0.6778,-0.6827,-0.679,-0.6793,-0.6795,-0.6904,-0.6905,-0.6907,0,0,0,0,0,0,-0.6642,-0.665,-0.6715,-0.6685,-0.6694,-0.6706,-0.6725,-0.6726,-0.6738,-0.6752,-0.6754,-0.6739,-0.6768,-0.6774,-0.6809,-0.6828,-0.6794,-0.6797,-0.6902,-0.6904,-0.6906,-0.6926,0,0,0,0,0,0,-0.664,-0.6649,-0.6666,-0.6686,-0.6695,-0.6747,-0.6726,-0.6728,-0.6742,-0.6741,-0.6762,-0.6764,-0.6768,-0.6805,-0.6812,-0.6832,-0.6799,-0.69,-0.6903,-0.6905,-0.6923,-0.6928,-0.6932,0,0,0,0,0,-0.6636,-0.667,-0.6667,-0.6675,-0.6716,-0.6748,-0.6753,-0.6757,-0.6744,-0.676,-0.6769,-0.6763,-0.6825,-0.6809,-0.6817,-0.6837,-0.6899,-0.6902,-0.6905,-0.6922,-0.6927,-0.6932,0,0,0,0,0,0,-0.6652,-0.6673,-0.6669,-0.671,-0.6727,-0.6746,-0.6767,-0.6763,-0.6784,-0.6781,-0.6785,-0.679,-0.6825,-0.6835,-0.6816,-0.6878,-0.686,-0.6865,-0.687,-0.6876,-0.688,-0.6877,-0.6801,0,0,0,0,0,-0.666,-0.6684,-0.6701,-0.6736,-0.6744,-0.6754,-0.6768,-0.6769,-0.6787,-0.6794,-0.6806,-0.6823,-0.6846,-0.6862,-0.6884,-0.6925,-0.6929,-0.6943,-0.6947,-0.695,-0.6954,-0.6975,-0.6982,-0.6916,-0.6916,-0.6916,0,0,-0.6677,-0.6691,-0.6707,-0.6739,-0.6752,-0.6777,-0.676,-0.6787,-0.6805,-0.6798,-0.6832,-0.6841,-0.686,-0.6898,-0.6916,-0.6907,-0.6973,-0.6954,-0.6957,-0.6959,-0.6979,-0.6985,-0.6991,-0.6918,-0.6918,-0.6917,0,0,-0.672,-0.6734,-0.6764,-0.6777,-0.6798,-0.6804,-0.6811,-0.683,-0.6836,-0.687,-0.6864,-0.6886,-0.6926,-0.6939,-0.6952,-0.6999,-0.6994,-0.7006,-0.7029,-0.7049,-0.7054,-0.7059,-0.7075,-0.7081,-0.701,-0.701,-0.701,0,-0.6739,-0.6776,-0.678,-0.6807,-0.6821,-0.6815,-0.6845,-0.6858,-0.6884,-0.6893,-0.6884,-0.6933,-0.6946,-0.6986,-0.6998,-0.7008,-0.7015,-0.7004,-0.7053,-0.7058,-0.7062,-0.7078,-0.7084,-0.7011,-0.7011,-0.7011,-0.7011,0,-0.6798,-0.6824,-0.6845,-0.6871,-0.6887,-0.6915,-0.6922,-0.6938,-0.6937,-0.6944,-0.6978,-0.6993,-0.7017,-0.7027,-0.7027,-0.7067,-0.7061,-0.7052,-0.7035,-0.707,-0.7084,-0.709,-0.7013,-0.7012,-0.7012,-0.7012,0,0,-0.6853,-0.6879,-0.6887,-0.6898,-0.6919,-0.6939,-0.6966,-0.699,-0.7003,-0.7021,-0.7044,-0.7077,-0.7069,-0.7083,-0.7084,-0.7102,-0.7137,-0.7091,-0.7092,-0.7099,-0.7181,-0.7188,-0.7194,-0.7134,-0.7135,-0.7136,-0.718,0,-0.6898,-0.6947,-0.695,-0.6994,-0.7017,-0.7011,-0.7035,-0.705,-0.7057,-0.7077,-0.7084,-0.7108,-0.7095,-0.7103,-0.7121,-0.7129,-0.7154,-0.7126,-0.7154,-0.7155,-0.715,-0.7202,-0.7209,-0.7249,-0.7185,-0.7186,-0.7187,0,-0.6957,-0.6977,-0.7023,-0.704,-0.705,-0.7071,-0.7092,-0.7112,-0.7129,-0.7132,-0.7147,-0.7145,-0.7173,-0.7154,-0.7191,-0.7172,-0.7184,-0.719,-0.7191,-0.7194,-0.7173,-0.7205,-0.7262,-0.7268,-0.7196,-0.7195,-0.7195,0,-0.6992,-0.703,-0.7062,-0.7071,-0.7092,-0.7107,-0.7116,-0.7132,-0.7146,-0.7164,-0.7173,-0.7195,-0.7206,-0.7223,-0.7227,-0.7213,-0.7263,-0.7245,-0.7266,-0.7266,-0.7277,-0.7276,-0.7336,-0.7285,-0.7285,-0.7285,-0.7285,0,-0.7042,-0.707,-0.7078,-0.7097,-0.7128,-0.7131,-0.7162,-0.717,-0.7183,-0.7204,-0.72,-0.722,-0.7224,-0.7244,-0.7247,-0.7277,-0.7282,-0.7285,-0.7286,-0.7285,-0.7285,-0.7293,-0.729,-0.7287,-0.7286,-0.7286,-0.7286,0,-0.7086,-0.7092,-0.7127,-0.7143,-0.7148,-0.717,-0.7184,-0.7202,-0.7208,-0.7234,-0.724,-0.7249,-0.7273,-0.7278,-0.7306,-0.7308,-0.7343,-0.7341,-0.7337,-0.7337,-0.7357,-0.7355,-0.7424,-0.7432,-0.7376,-0.7377,-0.7377,0,-0.7117,-0.7138,-0.7157,-0.717,-0.718,-0.7202,-0.7216,-0.7219,-0.7234,-0.7253,-0.7269,-0.7292,-0.731,-0.7348,-0.7356,-0.7377,-0.7375,-0.7398,-0.7378,-0.7377,-0.7375,-0.7373,-0.7375,-0.7402,-0.7402,-0.7403,-0.7403,0,-0.7171,-0.7173,-0.7193,-0.7214,-0.7231,-0.7247,-0.7263,-0.7274,-0.7279,-0.7296,-0.7319,-0.7333,-0.7361,-0.7384,-0.7404,-0.7413,-0.7409,-0.7409,-0.7415,-0.7415,-0.7411,-0.7413,-0.7347,-0.7408,-0.7407,-0.7407,-0.7407,-0.7406,-0.7209,-0.7228,-0.7243,-0.7266,-0.7278,-0.7292,-0.731,-0.7318,-0.7338,-0.736,-0.7361,-0.7386,-0.7401,-0.7428,-0.7438,-0.7458,-0.7451,-0.746,-0.7462,-0.7464,-0.7465,-0.7409,-0.7462,-0.7462,-0.7462,-0.7462,-0.7461,0,-0.7263,-0.7272,-0.7293,-0.7315,-0.7332,-0.7326,-0.7343,-0.7358,-0.738,-0.7394,-0.7412,-0.7439,-0.746,-0.747,-0.7491,-0.7504,-0.7503,-0.751,-0.7509,-0.751,-0.7471,-0.7463,-0.7511,-0.7511,-0.7511,-0.7511,-0.7511,-0.7511,-0.7293,-0.7323,-0.7327,-0.7362,-0.7372,-0.7396,-0.7406,-0.7419,-0.7431,-0.746,-0.7478,-0.7484,-0.7497,-0.7518,-0.7537,-0.7539,-0.7547,-0.7555,-0.7556,-0.7519,-0.7513,-0.7509,-0.7502,-0.7557,-0.7557,-0.7594,-0.7595,-0.7595]}]]